Location: Newark
(54.4333°N, 18.5500°E)
Time: 01:35:42
(UTC+00:00)

Envisat - Pass Details

Date: 13 December 2019
Orbit: 764 x 766 km, 98.1° (Epoch: 22 January)

Event Time Altitude Azimuth Distance (km) Brightness Sun altitude
Rises 15:47:06 0° 145° (SE) 3,226 6.1 -11.4°
Reaches altitude 10° 15:49:27 10° 141° (SE) 2,304 5.3 -11.7°
Maximum altitude 15:54:21 51° 66° (ENE) 968 3.1 -12.4°
Drops below altitude 10° 15:59:16 10° 352° (N) 2,319 5.3 -13.0°
Sets 16:01:38 0° 348° (NNW) 3,249 6.2 -13.4°
